Weather History for KEFD - January, 2014

Change the Weather History Date:

Monday, January 27, 2014

  Actual Average Record
Temperature  
Mean Temperature 58 °F -  
Max Temperature 64 °F 62 °F 78 °F (2009)
Min Temperature 51 °F 45 °F 33 °F (2004)
Degree Days  
Heating Degree Days 8    
Growing Degree Days 8 (Base 50)    
Moisture  
Dew Point 48 °F    
Average Humidity 73    
Maximum Humidity 100    
Minimum Humidity 41    
Precipitation  
Precipitation 0.00 in - - ()
Sea Level Pressure  
Sea Level Pressure 29.97 in    
Wind  
Wind Speed 6 mph (North)    
Max Wind Speed 18 mph    
Max Gust Speed 23 mph    
Visibility 6 miles    
Events Fog    
Averages and records for this station are not official NWS values.
T = Trace of Precipitation, MM = Missing Value Source: NWS Daily Summary

Daily Weather History Graph

Daily Weather History Graph

Search for Another Location

Airport or City:

Trip Planner

Search our weather history database for the weather conditions in past years. The results will help you decide how hot, cold, wet, or windy it might be!

Date:

Astronomy

Jan. 27, 2014 Rise Set
Actual Time 7:12 AM CST 5:54 PM CST
Civil Twilight 6:47 AM CST 6:19 PM CST
Nautical Twilight 6:18 AM CST 6:48 PM CST
Astronomical Twilight 5:50 AM CST 7:16 PM CST
Moon 3:52 AM CST (1/27) 2:44 PM CST (1/27)
Length of Visible Light 11h 31m
Length of Day
10h 41m
Waning Crescent, 14% of the Moon is Illuminated
Jan 27
Waning Crescent
Jan 30
New
Feb 6
First Quarter
Feb 14
Full
Feb 22
Last Quarter

Hourly Weather History & Observations

Time (CST) Temp. Dew Point Humidity Pressure Visibility Wind Dir Wind Speed Gust Speed Precip Events Conditions
12:50 AM 55.4 °F 51.8 °F 88% 29.82 in 0.2 mi Calm Calm - N/A Fog Fog
1:50 AM 53.6 °F 51.8 °F 94% 29.82 in 0.2 mi Calm Calm - N/A Fog Fog
2:50 AM 53.6 °F 51.8 °F 94% 29.80 in 0.2 mi Calm Calm - N/A Fog Fog
3:50 AM 57.2 °F 53.6 °F 88% 29.83 in 7.0 mi Calm Calm - N/A   Overcast
4:50 AM 62.6 °F 60.8 °F 94% 29.84 in 7.0 mi WSW 8.1 mph - N/A   Mostly Cloudy
5:50 AM 60.8 °F 59.0 °F 94% 29.84 in 7.0 mi WSW 5.8 mph - N/A   Mostly Cloudy
6:50 AM 59.0 °F 59.0 °F 100% 29.88 in 7.0 mi West 3.5 mph - N/A   Mostly Cloudy
7:10 AM 59.0 °F 59.0 °F 100% 29.88 in 3.0 mi SW 3.5 mph - N/A   Scattered Clouds
7:50 AM 57.2 °F 57.2 °F 100% 29.92 in 3.0 mi Calm Calm - N/A Fog Shallow Fog
8:50 AM 59.0 °F 59.0 °F 100% 29.95 in 5.0 mi WNW 4.6 mph - N/A   Scattered Clouds
9:50 AM 60.8 °F 57.2 °F 88% 29.98 in 6.0 mi North 10.4 mph - N/A   Mostly Cloudy
10:50 AM 62.6 °F 55.4 °F 77% 30.00 in 6.0 mi NNE 13.8 mph - N/A   Mostly Cloudy
11:50 AM 64.4 °F 57.2 °F 77% 29.99 in 7.0 mi North 12.7 mph - N/A   Mostly Cloudy
12:50 PM 60.8 °F 51.8 °F 72% 30.00 in 7.0 mi North 17.3 mph 23.0 mph N/A   Mostly Cloudy
1:50 PM 60.8 °F 48.2 °F 63% 29.98 in 7.0 mi NNW 18.4 mph - N/A   Mostly Cloudy
2:50 PM 60.8 °F 46.4 °F 59% 29.98 in 7.0 mi NNW 17.3 mph - N/A   Mostly Cloudy
4:50 PM 59.0 °F 41.0 °F 51% 30.02 in 7.0 mi NNE 11.5 mph - N/A   Mostly Cloudy
5:50 PM 59.0 °F 39.2 °F 48% 30.05 in 10.0 mi North 15.0 mph - N/A   Overcast
6:50 PM 57.2 °F 42.8 °F 59% 30.09 in 10.0 mi NNE 15.0 mph - N/A   Overcast
7:50 PM 55.4 °F 35.6 °F 47% 30.11 in 10.0 mi NNE 10.4 mph - N/A   Overcast
8:50 PM 55.4 °F 33.8 °F 44% 30.12 in 10.0 mi NNE 15.0 mph - N/A   Overcast
9:50 PM 53.6 °F 32.0 °F 44% 30.13 in 10.0 mi NNE 11.5 mph - N/A   Overcast
10:50 PM 51.8 °F 28.4 °F 41% 30.14 in 10.0 mi NNE 12.7 mph - N/A   Overcast
11:50 PM 51.8 °F 28.4 °F 41% 30.15 in 10.0 mi NNE 11.5 mph - N/A   Overcast